| time (UTC) | temp F | wind direction | speed knots | gust knots | rain 1hr in | rain 24hr in | rain mn in | humidity % | barometer mb |
| 20260906093123 | 55 | 156 | 0.0 | 0.0 | 0.00 | 0.00 | 0.00 | 87 | 1017.1 |
| 20260906092123 | 55 | 155 | 0.0 | 0.0 | 0.00 | 0.00 | 0.00 | 87 | 1017.1 |
| 20260906091124 | 56 | 154 | 0.0 | 0.0 | 0.00 | 0.00 | 0.00 | 86 | 1017.3 |
| 20260906090145 | 56 | 156 | 0.0 | 0.0 | 0.00 | 0.00 | 0.00 | 86 | 1017.4 |
| 20260906085123 | 56 | 155 | 0.0 | 0.0 | 0.00 | 0.00 | 0.00 | 86 | 1017.3 |
| 20260906084123 | 56 | 154 | 0.0 | 0.0 | 0.00 | 0.00 | 0.00 | 85 | 1017.4 |
| 20260906083123 | 57 | 156 | 0.0 | 0.0 | 0.00 | 0.00 | 0.00 | 84 | 1017.5 |
| 20260906082123 | 57 | 155 | 0.0 | 0.0 | 0.00 | 0.00 | 0.00 | 83 | 1017.5 |
| 20260906081144 | 57 | 155 | 0.0 | 0.0 | 0.00 | 0.00 | 0.00 | 82 | 1017.4 |
| 20260906080123 | 58 | 155 | 0.0 | 0.0 | 0.00 | 0.00 | 0.00 | 82 | 1017.5 |
| 20260906075144 | 59 | 88 | 0.0 | 0.0 | 0.00 | 0.00 | 0.00 | 80 | 1017.4 |
| 20260906074123 | 59 | 88 | 0.0 | 2.6 | 0.00 | 0.00 | 0.00 | 80 | 1017.3 |
| 20260906073144 | 59 | 84 | 0.9 | 5.2 | 0.00 | 0.00 | 0.00 | 79 | 1017.4 |
| 20260906072144 | 59 | 75 | 0.0 | 0.0 | 0.00 | 0.00 | 0.00 | 80 | 1017.3 |
| 20260906071123 | 59 | 75 | 0.0 | 0.0 | 0.00 | 0.00 | 0.00 | 79 | 1017.4 |
| 20260906070123 | 59 | 71 | 0.0 | 5.2 | 0.00 | 0.00 | 0.00 | 80 | 1017.4 |
| 20260906065123 | 59 | 96 | 0.9 | 4.3 | 0.00 | 0.00 | 0.00 | 81 | 1017.5 |
| 20260906064144 | 58 | 93 | 1.7 | 4.3 | 0.00 | 0.00 | 0.00 | 82 | 1017.5 |
| 20260906063123 | 58 | 92 | 0.0 | 0.0 | 0.00 | 0.00 | 0.00 | 82 | 1017.3 |
| 20260906062123 | 59 | 93 | 0.0 | 0.0 | 0.00 | 0.00 | 0.00 | 82 | 1017.4 |
| 20260906061123 | 59 | 93 | 0.9 | 2.6 | 0.00 | 0.00 | 0.00 | 81 | 1017.3 |
| 20260906060123 | 59 | 90 | 0.0 | 0.0 | 0.00 | 0.00 | 0.00 | 81 | 1017.4 |
| 20260906055122 | 59 | 92 | 0.0 | 1.7 | 0.00 | 0.00 | 0.00 | 81 | 1017.4 |
| 20260906054123 | 60 | 93 | 0.0 | 2.6 | 0.00 | 0.00 | 0.00 | 80 | 1017.3 |
| 20260906053123 | 61 | 83 | 0.9 | 4.3 | 0.00 | 0.00 | 0.00 | 79 | 1017.4 |
| 20260906052122 | 60 | 99 | 1.7 | 4.3 | 0.00 | 0.00 | 0.00 | 81 | 1017.4 |
| 20260906051144 | 60 | 100 | 0.0 | 2.6 | 0.00 | 0.00 | 0.00 | 82 | 1017.4 |
| 20260906050123 | 61 | 103 | 0.9 | 4.3 | 0.00 | 0.00 | 0.00 | 82 | 1017.5 |
| 20260906045123 | 61 | 72 | 0.0 | 2.6 | 0.00 | 0.00 | 0.00 | 81 | 1017.5 |
| 20260906044123 | 61 | 354 | 0.0 | 1.7 | 0.00 | 0.00 | 0.00 | 81 | 1017.5 |
| 20260906043144 | 61 | 356 | 0.0 | 2.6 | 0.00 | 0.00 | 0.00 | 83 | 1017.6 |
| 20260906042123 | 60 | 300 | 0.0 | 0.0 | 0.00 | 0.00 | 0.00 | 83 | 1017.6 |
| 20260906041123 | 61 | 299 | 0.0 | 0.0 | 0.00 | 0.00 | 0.00 | 82 | 1017.6 |
| 20260906040123 | 61 | 311 | 0.0 | 2.6 | 0.00 | 0.00 | 0.00 | 81 | 1017.6 |
| 20260906035144 | 61 | 313 | 0.9 | 2.6 | 0.00 | 0.00 | 0.00 | 81 | 1017.5 |
| 20260906034144 | 62 | 299 | 0.0 | 1.7 | 0.00 | 0.00 | 0.00 | 80 | 1017.5 |
| 20260906033123 | 62 | 299 | 0.0 | 1.7 | 0.00 | 0.00 | 0.00 | 79 | 1017.3 |
| 20260906032122 | 62 | 313 | 0.9 | 2.6 | 0.00 | 0.00 | 0.00 | 78 | 1017.4 |
| 20260906031123 | 63 | 204 | 0.0 | 1.7 | 0.00 | 0.00 | 0.00 | 76 | 1017.4 |
| 20260906030123 | 63 | 251 | 0.9 | 4.3 | 0.00 | 0.00 | 0.00 | 74 | 1017.3 |
| 20260906025122 | 64 | 224 | 0.9 | 4.3 | 0.00 | 0.00 | 0.00 | 72 | 1017.6 |
| 20260906024123 | 64 | 225 | 0.9 | 4.3 | 0.00 | 0.00 | 0.00 | 71 | 1017.4 |
| 20260906023123 | 65 | 314 | 0.0 | 2.6 | 0.00 | 0.00 | 0.00 | 72 | 1017.4 |
| 20260906022123 | 65 | 309 | 0.9 | 4.3 | 0.00 | 0.00 | 0.00 | 71 | 1017.4 |
| 20260906021122 | 66 | 347 | 2.6 | 7.0 | 0.00 | 0.00 | 0.00 | 69 | 1017.4 |
| 20260906020123 | 66 | 335 | 1.7 | 7.0 | 0.00 | 0.00 | 0.00 | 66 | 1017.2 |
| 20260906015122 | 67 | 300 | 1.7 | 5.2 | 0.00 | 0.00 | 0.00 | 64 | 1017.1 |
| 20260906014144 | 67 | 341 | 2.6 | 11.3 | 0.00 | 0.00 | 0.00 | 65 | 1017.1 |
| 20260906013123 | 67 | 310 | 2.6 | 5.2 | 0.00 | 0.00 | 0.00 | 63 | 1016.9 |
| 20260906012144 | 69 | 301 | 0.9 | 5.2 | 0.00 | 0.00 | 0.00 | 57 | 1016.7 |
| 20260906011123 | 69 | 218 | 2.6 | 9.6 | 0.00 | 0.00 | 0.00 | 53 | 1016.7 |
| 20260906010122 | 70 | 307 | 4.3 | 13.9 | 0.00 | 0.00 | 0.00 | 53 | 1016.6 |
| 20260906005123 | 70 | 305 | 3.5 | 13.9 | 0.00 | 0.00 | 0.00 | 54 | 1016.6 |
| 20260906004123 | 70 | 311 | 3.5 | 12.2 | 0.00 | 0.00 | 0.00 | 53 | 1016.6 |
| 20260906003123 | 70 | 318 | 3.5 | 11.3 | 0.00 | 0.00 | 0.00 | 54 | 1016.6 |
| 20260906002144 | 70 | 333 | 2.6 | 11.3 | 0.00 | 0.00 | 0.00 | 57 | 1016.6 |
| 20260906001122 | 70 | 310 | 4.3 | 16.5 | 0.00 | 0.00 | 0.00 | 56 | 1016.6 |
| 20260906000123 | 70 | 304 | 6.1 | 15.6 | 0.00 | 0.00 | 0.00 | 52 | 1016.6 |
| 20260905235144 | 71 | 323 | 4.3 | 13.9 | 0.00 | 0.00 | 0.00 | 55 | 1016.7 |
| 20260905234123 | 72 | 339 | 4.3 | 13.9 | 0.00 | 0.00 | 0.00 | 55 | 1016.7 |
| 20260905233123 | 72 | 64 | 1.7 | 9.6 | 0.00 | 0.00 | 0.00 | 53 | 1016.7 |
| 20260905232143 | 72 | 343 | 1.7 | 8.7 | 0.00 | 0.00 | 0.00 | 57 | 1016.7 |
| 20260905231143 | 71 | 197 | 3.5 | 11.3 | 0.00 | 0.00 | 0.00 | 53 | 1016.8 |
| 20260905230122 | 73 | 335 | 0.9 | 7.0 | 0.00 | 0.00 | 0.00 | 55 | 1016.9 |
| 20260905225123 | 73 | 305 | 1.7 | 5.2 | 0.00 | 0.00 | 0.00 | 50 | 1016.9 |
| 20260905224144 | 73 | 336 | 2.6 | 9.6 | 0.00 | 0.00 | 0.00 | 54 | 1016.7 |
| 20260905223123 | 72 | 312 | 2.6 | 11.3 | 0.00 | 0.00 | 0.00 | 53 | 1016.7 |
| 20260905222123 | 73 | 313 | 1.7 | 11.3 | 0.00 | 0.00 | 0.00 | 53 | 1016.8 |
| 20260905221123 | 72 | 304 | 2.6 | 13.9 | 0.00 | 0.00 | 0.00 | 54 | 1016.8 |
| 20260905220123 | 72 | 315 | 3.5 | 12.2 | 0.00 | 0.00 | 0.00 | 56 | 1016.9 |
| 20260905215122 | 72 | 308 | 4.3 | 15.6 | 0.00 | 0.00 | 0.00 | 55 | 1016.9 |
| 20260905214122 | 71 | 308 | 5.2 | 16.5 | 0.00 | 0.00 | 0.00 | 56 | 1017.0 |
| 20260905213144 | 72 | 326 | 4.3 | 18.2 | 0.00 | 0.00 | 0.00 | 57 | 1017.1 |
| 20260905212123 | 71 | 307 | 3.5 | 15.6 | 0.00 | 0.00 | 0.00 | 60 | 1017.1 |
| 20260905211123 | 71 | 288 | 1.7 | 9.6 | 0.00 | 0.00 | 0.00 | 58 | 1017.4 |
| 20260905210144 | 70 | 307 | 4.3 | 12.2 | 0.00 | 0.00 | 0.00 | 62 | 1017.3 |
| 20260905205122 | 70 | 317 | 2.6 | 12.2 | 0.00 | 0.00 | 0.00 | 63 | 1017.4 |
| 20260905204123 | 70 | 308 | 4.3 | 13.9 | 0.00 | 0.00 | 0.00 | 64 | 1017.5 |
| 20260905203123 | 69 | 323 | 3.5 | 15.6 | 0.00 | 0.00 | 0.00 | 65 | 1017.6 |
| 20260905202123 | 69 | 323 | 5.2 | 16.5 | 0.00 | 0.00 | 0.00 | 65 | 1017.5 |
| 20260905201123 | 69 | 327 | 6.1 | 18.2 | 0.00 | 0.00 | 0.00 | 64 | 1017.6 |
| 20260905200124 | 69 | 320 | 5.2 | 18.2 | 0.00 | 0.00 | 0.00 | 63 | 1017.6 |
| 20260905195123 | 68 | 316 | 7.0 | 18.2 | 0.00 | 0.00 | 0.00 | 64 | 1017.6 |
| 20260905194122 | 69 | 330 | 5.2 | 16.5 | 0.00 | 0.00 | 0.00 | 64 | 1017.7 |
| 20260905193122 | 68 | 328 | 3.5 | 13.9 | 0.00 | 0.00 | 0.00 | 67 | 1017.7 |
| 20260905192122 | 67 | 319 | 4.3 | 15.6 | 0.00 | 0.00 | 0.00 | 68 | 1017.8 |
| 20260905191122 | 66 | 309 | 3.5 | 15.6 | 0.00 | 0.00 | 0.00 | 70 | 1017.8 |
| 20260905190144 | 68 | 330 | 3.5 | 11.3 | 0.00 | 0.00 | 0.00 | 68 | 1017.9 |
| 20260905185143 | 67 | 333 | 2.6 | 12.2 | 0.00 | 0.00 | 0.00 | 69 | 1018.0 |
| 20260905184123 | 68 | 334 | 4.3 | 13.9 | 0.00 | 0.00 | 0.00 | 66 | 1018.2 |
| 20260905183123 | 67 | 325 | 4.3 | 12.2 | 0.00 | 0.00 | 0.00 | 65 | 1018.2 |
| 20260905182143 | 67 | 336 | 3.5 | 11.3 | 0.00 | 0.00 | 0.00 | 66 | 1018.2 |
| 20260905181144 | 67 | 311 | 4.3 | 15.6 | 0.00 | 0.00 | 0.00 | 67 | 1018.2 |
| 20260905180123 | 68 | 295 | 1.7 | 11.3 | 0.00 | 0.00 | 0.00 | 68 | 1018.1 |
| 20260905175122 | 66 | 275 | 1.7 | 5.2 | 0.00 | 0.00 | 0.00 | 68 | 1018.2 |
| 20260905174144 | 66 | 328 | 0.9 | 5.2 | 0.00 | 0.00 | 0.00 | 68 | 1018.2 |
| 20260905173123 | 65 | 166 | 0.9 | 5.2 | 0.00 | 0.00 | 0.00 | 70 | 1018.2 |
| 20260905172122 | 65 | 174 | 0.9 | 5.2 | 0.00 | 0.00 | 0.00 | 70 | 1018.1 |
| 20260905171123 | 65 | 313 | 0.9 | 4.3 | 0.00 | 0.00 | 0.00 | 70 | 1018.1 |
| 20260905170122 | 63 | 178 | 0.9 | 5.2 | 0.00 | 0.00 | 0.00 | 70 | 1018.2 |
| 20260905165122 | 63 | 88 | 0.9 | 5.2 | 0.00 | 0.00 | 0.00 | 72 | 1018.2 |
| 20260905164123 | 63 | 79 | 0.9 | 4.3 | 0.00 | 0.00 | 0.00 | 75 | 1018.2 |
| 20260905163122 | 62 | 98 | 2.6 | 8.7 | 0.00 | 0.00 | 0.00 | 74 | 1018.3 |
| 20260905162123 | 63 | 359 | 1.7 | 4.3 | 0.00 | 0.00 | 0.00 | 74 | 1018.2 |
| 20260905161122 | 62 | 84 | 0.9 | 2.6 | 0.00 | 0.00 | 0.00 | 77 | 1018.2 |
| 20260905160143 | 61 | 78 | 1.7 | 4.3 | 0.00 | 0.00 | 0.00 | 77 | 1018.2 |
| 20260905155123 | 60 | 88 | 0.9 | 5.2 | 0.00 | 0.00 | 0.00 | 79 | 1018.2 |
| 20260905154123 | 60 | 70 | 0.9 | 4.3 | 0.00 | 0.00 | 0.00 | 79 | 1018.2 |
| 20260905153122 | 60 | 85 | 0.9 | 2.6 | 0.00 | 0.00 | 0.00 | 79 | 1018.3 |
| 20260905152144 | 60 | 86 | 0.9 | 2.6 | 0.00 | 0.00 | 0.00 | 79 | 1018.2 |
| 20260905151144 | 60 | 56 | 0.0 | 0.0 | 0.00 | 0.00 | 0.00 | 81 | 1018.2 |
| 20260905150123 | 59 | 120 | 0.9 | 2.6 | 0.00 | 0.00 | 0.00 | 83 | 1017.9 |
| 20260905145122 | 58 | 119 | 0.0 | 0.0 | 0.00 | 0.00 | 0.00 | 85 | 1017.9 |
| 20260905144123 | 57 | 105 | 0.9 | 2.6 | 0.00 | 0.00 | 0.00 | 85 | 1018.0 |
| 20260905143123 | 57 | 118 | 0.9 | 2.6 | 0.00 | 0.00 | 0.00 | 85 | 1017.9 |
| 20260905142122 | 57 | 118 | 0.0 | 0.0 | 0.00 | 0.00 | 0.00 | 87 | 1017.9 |
| 20260905141123 | 57 | 118 | 0.0 | 0.0 | 0.00 | 0.00 | 0.00 | 88 | 1017.8 |
| 20260905140122 | 56 | 118 | 0.0 | 0.0 | 0.00 | 0.00 | 0.00 | 89 | 1017.8 |
| 20260905135123 | 56 | 177 | 0.0 | 0.0 | 0.00 | 0.00 | 0.00 | 89 | 1017.8 |
| 20260905134143 | 56 | 176 | 0.0 | 0.0 | 0.00 | 0.00 | 0.00 | 89 | 1017.7 |
| 20260905133144 | 56 | 177 | 0.0 | 0.0 | 0.00 | 0.00 | 0.00 | 89 | 1017.7 |
| 20260905132123 | 56 | 177 | 0.0 | 0.0 | 0.00 | 0.00 | 0.00 | 89 | 1017.8 |
| 20260905131123 | 56 | 179 | 0.0 | 0.0 | 0.00 | 0.00 | 0.00 | 89 | 1017.6 |
| 20260905130123 | 56 | 174 | 0.0 | 0.0 | 0.00 | 0.00 | 0.00 | 88 | 1017.7 |
| 20260905125122 | 56 | 177 | 0.0 | 0.0 | 0.00 | 0.00 | 0.00 | 88 | 1017.5 |
| 20260905124123 | 56 | 100 | 0.0 | 0.0 | 0.00 | 0.00 | 0.00 | 88 | 1017.4 |
| 20260905123143 | 57 | 101 | 0.0 | 0.0 | 0.00 | 0.00 | 0.00 | 88 | 1017.4 |
| 20260905122122 | 57 | 102 | 0.0 | 0.0 | 0.00 | 0.00 | 0.00 | 88 | 1017.4 |
| 20260905121143 | 57 | 101 | 0.0 | 0.0 | 0.00 | 0.00 | 0.00 | 88 | 1017.3 |
| 20260905120123 | 57 | 102 | 0.0 | 0.0 | 0.00 | 0.00 | 0.00 | 88 | 1017.4 |
| 20260905115122 | 57 | 102 | 0.0 | 0.0 | 0.00 | 0.00 | 0.00 | 88 | 1017.3 |
| 20260905114123 | 57 | 102 | 0.0 | 0.0 | 0.00 | 0.00 | 0.00 | 88 | 1017.3 |
| 20260905113144 | 57 | 101 | 0.0 | 0.0 | 0.00 | 0.00 | 0.00 | 87 | 1017.2 |
| 20260905112122 | 57 | 102 | 0.0 | 0.0 | 0.00 | 0.00 | 0.00 | 87 | 1017.2 |
| 20260905111143 | 57 | 101 | 0.9 | 2.6 | 0.00 | 0.00 | 0.00 | 87 | 1017.1 |
| 20260905110122 | 57 | 101 | 0.0 | 1.7 | 0.00 | 0.00 | 0.00 | 87 | 1017.0 |
| 20260905105123 | 57 | 100 | 0.0 | 0.0 | 0.00 | 0.00 | 0.00 | 87 | 1017.0 |
| 20260905104123 | 57 | 102 | 0.0 | 0.0 | 0.00 | 0.00 | 0.00 | 87 | 1017.0 |
| 20260905103144 | 58 | 100 | 0.0 | 0.0 | 0.00 | 0.00 | 0.00 | 86 | 1017.0 |
| 20260905102122 | 58 | 102 | 0.0 | 1.7 | 0.00 | 0.00 | 0.00 | 85 | 1016.9 |
| 20260905101122 | 58 | 112 | 0.9 | 2.6 | 0.00 | 0.00 | 0.00 | 84 | 1016.9 |
| 20260905100122 | 59 | 36 | 0.0 | 1.7 | 0.00 | 0.00 | 0.00 | 83 | 1017.0 |
| 20260905095122 | 59 | 35 | 0.0 | 1.7 | 0.00 | 0.00 | 0.00 | 82 | 1017.1 |
| 20260905094143 | 59 | 13 | 0.0 | 2.6 | 0.00 | 0.00 | 0.00 | 81 | 1017.1 |